SCP
0 0 0 0 0 0 0 0 0 0 0 0 0 0 0 0 0 0 0 0 0 0 0 0 0 0 0 0 0 0 0 0 0 0 0 0 0 0 0 0 0 0 0
0 0 0 0 0 0 0 0 0 0 0 0 0 0 0 0 0 0 0 0 0 0 0 0 0 0 0 0 0 0 0 0 0 0 0 0 0 0 0 0 0 0 0
0 0 0 0 0 0 0 0 0 0 0 0 0 0 0 0 0 0 0 0 0 0 0 0 0 0 0 0 0 0 0 0 0 0 0 0 0 0 0 0 0 0 0
0 0 0 0 0 0 0 0 0 0 0 0 0 0 0 0 0 0 0 0 0 0 0 0 0 0 0 0 1 0 0 0 0 0 0 0 0 0 0 0 0 0 0
1 1 1 0 0 0 0 0 0 0 0 0 0 0 0 0 0 1 0 0 0 0 0 0 0 0 0 0 1 0 0 0 0 0 0 0 0 0 0 0 0 0 0
1 1 1 1 1 1 1 0 1 1 1 1 1 0 0 0 1 1 0 0 0 0 0 0 0 0 0 0 0 0 0 0 0 0 0 0 0 0 0 0 0 0 0
1 1 1 1 1 1 1 1 1 1 1 1 1 1 0 0 0 0 0 0 0 0 0 0 0 0 0 0 0 0 0 0 0 0 0 0 0 0 0 0 0 0 0
1 1 1 1 1 1 1 1 1 1 1 1 1 1 0 0 0 0 0 0 0 0 0 0 0 0 0 0 0 0 0 0 0 0 0 0 0 0 0 0 0 0 0
1 1 1 1 1 1 1 1 1 1 1 1 1 1 0 0 0 0 0 0 0 0 0 0 0 0 0 0 0 0 0 0 0 0 0 0 0 0 0 0 0 0 0
1 1 1 1 1 1 1 1 1 1 1 1 1 1 0 0 0 0 0 0 0 0 0 0 0 0 0 0 0 0 0 0 0 0 0 0 0 0 0 0 0 0 0
1 1 1 1 1 1 1 1 1 1 1 1 1 1 0 0 0 0 0 0 0 0 0 0 0 0 0 0 0 0 0 0 0 0 0 0 0 0 0 0 0 0 0
1 1 1 1 1 1 1 1 1 1 1 1 1 1 1 1 1 0 0 0 0 0 0 0 0 0 0 0 0 0 0 0 0 0 0 0 0 0 0 0 0 0 0
1 1 1 1 1 1 1 1 1 1 1 1 1 1 1 1 1 0 0 0 0 0 0 0 0 0 0 0 0 0 0 0 0 0 0 0 0 0 0 0 0 0 0
1 1 1 1 1 1 1 1 1 1 1 1 1 1 1 1 1 0 0 0 0 0 0 0 0 0 0 0 0 0 0 0 0 0 0 0 0 0 0 0 0 0 0
1 1 1 0 0 0 0 0 0 0 0 1 0 1 1 1 0 0 0 0 0 0 0 0 0 0 0 0 0 0 0 0 0 0 0 0 0 0 0 0 0 0 0
1 1 0 0 0 0 0 0 0 0 0 0 0 0 0 0 0 0 0 0 0 0 0 0 0 0 0 0 0 0 0 0 0 0 0 0 0 0 0 0 0 0 0
0 0 0 0 0 0 0 0 0 0 0 0 0 0 0 0 0 0 0 0 0 0 0 0 0 0 0 0 0 0 0 0 0 0 0 0 0 0 0 0 0 0 0
0 0 0 0 0 0 0 0 0 0 0 0 0 0 0 0 0 0 0 0 0 0 0 0 0 0 0 0 0 0 0 0 0 0 0 0 0 0 0 0 0 0 0
0 0 0 0 0 0 0 0 0 0 0 0 0 0 0 0 0 0 0 0 0 0 0 0 0 0 0 0 0 0 0 0 0 0 0 0 0 0 0 0 0 0 0
0 0 0 0 0 0 0 0 0 0 0 0 0 0 0 0 0 0 0 0 0 0 0 0 0 0 0 0 0 0 0 0 0 0 0 0 0 0 0 0 0 0 0
0 0 0 0 0 0 0 0 0 0 0 0 0 0 0 0 0 0 0 0 0 0 0 0 0 0 0 0 0 0 0 0 0 0 0 0 0 0 0 0 0 0 0
0 0 0 0 0 0 0 0 0 0 0 0 0 0 0 0 0 0 0 0 0 0 0 0 0 0 0 0 0 0 0 0 0 0 0 0 0 0 0 0 0 0 0
0 0 0 0 0 0 0 0 0 0 0 0 0 0 0 0 0 0 0 0 0 0 0 0 0 0 0 0 0 0 0 0 0 0 0 0 0 0 0 0 0 0 0
0 0 0 0 0 0 0 0 0 0 0 0 0 0 0 0 0 0 0 0 0 0 0 0 0 0 0 0 0 0 0 0 0 0 0 0 0 0 0 0 0 0 0
0 0 0 0 0 0 0 0 0 0 0 0 0 0 0 0 0 0 0 0 0 0 0 0 0 0 0 0 0 0 0 0 0 0 0 0 0 0 0 0 0 0 0
0 0 0 0 0 0 0 0 0 0 0 0 0 0 0 0 0 0 0 0 0 0 0 0 0 0 0 0 0 0 0 0 0 0 0 0 0 0 0 0 0 0 0
Wind_Speed
7 6 5 5 5 4 5 5 5 5 4 4 3 3 3 3 3 3 2 3 5 7 7 8 8 8 8 8 8 7 7 7 7 7 6 6 6 5 5 5 4 4 3
7 6 6 5 5 5 4 4 5 4 4 3 3 3 3 3 4 4 4 3 5 5 7 8 9 9 8 8 7 7 6 7 6 6 7 7 7 7 6 6 6 5 4
8 7 6 6 5 5 5 4 5 4 3 3 4 3 3 4 4 5 4 4 3 3 4 6 7 8 8 7 7 5 4 3 4 5 5 7 7 7 8 7 7 7 6
9 7 6 6 6 5 5 4 4 4 4 4 3 3 3 3 5 4 4 4 3 3 2 1 4 5 5 5 4 2 1 2 2 2 4 5 6 8 8 9 8 8 8
10 8 6 6 7 5 5 5 5 4 4 3 3 3 3 3 3 3 4 3 2 3 3 1 0 3 3 3 2 1 1 2 1 0 2 3 5 6 8 10 10 10 9
10 9 6 7 7 6 6 6 6 4 3 3 2 3 3 3 2 2 2 1 1 2 2 2 1 1 1 2 1 0 1 2 1 1 2 3 5 6 7 8 10 10 11
10 9 6 7 7 6 7 7 6 6 4 3 3 3 3 2 1 0 0 1 1 2 2 2 2 2 2 4 4 3 2 2 2 2 3 4 5 6 8 8 8 8 9
9 8 9 7 7 6 7 7 7 5 4 3 3 3 3 4 3 1 1 1 1 1 2 3 3 3 2 1 5 6 4 3 3 3 4 5 6 7 8 8 8 9 9
9 9 9 8 8 7 7 7 7 8 5 4 4 3 3 3 1 3 2 1 0 1 1 2 3 3 3 2 2 5 6 5 4 4 5 6 6 7 8 8 8 7 8
8 8 8 8 8 7 7 7 6 5 5 4 4 4 4 2 3 2 3 2 0 1 1 1 1 2 2 2 3 5 6 5 4 5 5 6 6 6 8 9 8 7 6
6 7 7 6 6 5 6 6 6 6 4 4 4 3 4 3 5 4 4 3 2 1 0 1 1 1 2 2 2 5 6 5 5 5 6 6 7 8 8 9 9 7 6
4 6 6 5 5 5 6 6 6 6 5 5 4 4 3 3 4 4 5 4 4 2 1 1 1 0 1 1 4 6 6 6 6 6 6 8 9 10 10 10 9 8 7
5 6 6 6 6 6 6 5 5 6 6 6 5 4 3 3 2 3 4 4 4 2 2 2 1 1 1 1 2 5 5 6 7 7 8 9 10 10 10 10 10 9 8
6 7 7 7 7 7 7 6 5 5 4 5 5 5 3 3 3 3 3 3 4 4 4 4 2 2 1 1 3 3 3 6 7 8 9 9 9 10 10 10 10 10 10
6 8 8 8 8 8 8 8 6 6 6 5 5 5 4 3 2 2 3 3 4 4 3 3 3 2 1 1 2 1 3 6 6 6 7 8 8 9 9 10 10 10 10
7 8 8 9 8 8 8 7 6 6 6 5 4 5 4 3 3 2 2 3 3 4 3 1 2 2 2 2 2 2 3 4 5 5 6 7 7 8 9 10 10 11 10
8 9 9 9 9 9 8 7 7 7 7 6 5 5 5 4 3 3 2 2 3 3 5 2 1 2 3 3 2 1 1 2 2 5 5 6 6 7 8 9 11 11 11
7 8 9 9 9 9 8 8 8 7 7 7 7 6 6 4 5 3 3 3 3 3 4 4 2 2 2 2 2 2 1 1 2 5 5 5 6 6 7 8 10 11 11
6 7 8 8 8 8 8 7 8 7 7 7 6 6 6 6 6 4 4 3 2 2 3 3 2 1 1 2 2 1 1 0 1 2 3 4 5 6 7 8 9 10 11
6 7 7 7 7 7 7 7 7 7 7 6 5 5 6 6 5 5 4 3 3 3 3 3 2 2 2 2 2 2 2 1 1 1 1 2 3 4 6 7 8 9 9
5 6 6 7 7 6 7 8 7 7 7 7 6 5 5 4 4 4 3 3 4 3 3 3 3 3 3 3 3 2 2 2 1 1 1 0 0 0 2 4 6 7 8
5 6 6 7 7 5 8 10 8 7 7 7 6 6 5 5 6 6 5 3 2 3 4 3 4 4 4 3 3 2 2 2 3 2 2 1 1 0 1 2 5 6 7
6 7 7 7 7 7 11 11 10 6 7 6 6 6 5 5 7 5 6 6 3 1 2 4 5 4 4 4 4 4 3 2 1 1 2 1 1 1 1 2 5 5 5
6 6 7 7 7 8 12 12 11 7 6 6 6 7 7 7 7 7 6 5 4 3 2 3 3 2 1 2 3 3 2 2 1 1 2 2 1 1 1 0 4 4 4
6 6 6 7 7 8 12 13 12 6 6 6 6 7 7 7 9 10 7 6 5 4 3 2 2 3 3 3 3 3 3 3 2 2 1 2 1 1 1 1 1 3 3
6 6 6 6 7 8 12 14 13 6 6 6 6 6 8 8 11 12 8 7 6 5 5 5 4 5 4 4 4 3 3 2 1 2 2 1 1 1 1 1 1 1 1
Wind_Direction
169 168 169 171 178 174 178 185 190 182 189 191 203 227 237 244 257 261 229 200 264 281 282 281 277 274 267 261 253 246 241 238 237 237 236 239 243 250 259 266 276 283 298
174 175 173 179 180 184 184 190 190 191 197 207 219 228 244 256 268 276 286 242 227 263 279 279 278 277 276 272 261 250 239 233 233 235 235 238 240 243 249 256 258 265 273
182 181 181 182 183 184 186 193 189 203 209 215 225 236 257 272 277 277 283 292 279 236 257 278 281 282 280 278 269 255 233 217 226 235 242 246 244 246 248 252 253 251 255
189 187 186 189 185 184 191 194 198 203 208 221 233 238 255 266 276 287 286 285 294 299 258 273 300 299 294 287 270 248 179 155 196 241 256 262 256 253 252 252 250 248 247
191 193 194 189 184 189 196 195 208 211 214 223 243 259 267 272 282 282 284 297 306 305 306 96 302 331 319 308 282 239 174 119 103 335 290 285 283 271 264 256 251 247 244
192 195 195 195 189 191 196 199 203 209 224 227 238 255 266 274 270 284 301 315 336 341 328 327 294 91 44 348 349 58 117 99 78 24 345 321 306 293 283 274 261 251 245
194 196 193 195 195 200 201 201 201 202 206 215 237 243 231 221 217 177 316 338 36 26 19 17 11 359 67 70 51 58 64 70 52 22 360 341 329 312 296 281 276 263 250
198 199 199 195 193 198 200 198 198 203 193 202 231 245 235 197 173 165 91 47 36 62 55 38 34 26 16 28 56 44 35 35 16 360 342 329 324 317 309 299 284 272 261
202 200 202 197 193 194 196 198 201 206 200 195 221 239 249 246 195 177 156 160 75 45 48 39 29 24 22 18 44 53 34 20 6 349 336 332 329 325 321 314 301 293 278
204 201 198 199 195 194 194 193 203 210 206 194 197 231 258 282 257 231 186 180 145 336 4 19 12 25 17 22 46 42 25 11 1 347 338 338 341 343 343 339 326 310 303
197 192 190 190 192 189 188 187 191 195 203 207 198 195 212 228 244 255 251 222 215 217 308 341 337 13 26 23 23 33 20 10 357 353 356 4 5 355 348 341 341 334 324
188 185 180 178 180 181 179 183 184 187 194 200 200 201 207 213 215 229 251 260 262 234 218 248 267 36 44 34 43 26 21 16 6 8 16 26 20 10 1 355 349 344 339
188 187 177 172 173 175 169 169 178 185 192 196 198 198 211 226 234 237 249 261 264 253 223 218 206 170 104 54 53 20 35 28 23 25 31 33 25 13 4 358 357 354 348
188 182 176 173 172 167 162 168 171 178 187 192 195 191 196 198 206 221 233 244 254 245 226 214 176 179 143 84 53 11 45 39 38 40 37 33 24 16 10 6 6 4 1
177 177 176 171 170 166 168 169 174 176 178 184 189 190 190 183 193 209 221 233 244 254 243 198 177 160 155 124 75 42 48 47 45 46 43 35 26 20 18 16 13 12 8
176 174 174 170 171 170 172 172 169 173 177 178 178 182 181 177 178 189 203 220 240 254 258 170 174 159 166 148 106 75 57 53 51 49 46 38 29 24 21 19 18 16 13
178 177 172 170 171 171 172 171 170 168 175 173 175 182 180 176 176 179 188 207 223 238 254 239 163 170 184 175 143 103 52 24 50 45 41 38 35 29 26 25 24 22 19
175 173 169 169 171 172 172 173 168 174 178 177 177 178 177 174 179 178 189 206 217 226 249 247 194 183 192 180 163 141 80 36 29 40 38 37 37 34 30 31 29 25 22
171 168 169 169 170 171 173 174 171 174 176 177 179 182 181 182 187 185 191 200 210 221 237 245 213 166 166 168 173 163 157 137 42 26 34 38 36 34 32 33 31 27 24
172 170 170 169 170 170 171 170 169 171 170 170 174 180 181 189 192 186 190 197 205 217 221 228 214 189 184 176 198 198 199 188 211 341 22 27 33 36 36 34 33 28 26
176 170 166 167 170 171 174 171 169 172 170 170 171 174 175 175 174 178 184 193 203 217 219 219 214 201 197 193 203 188 204 189 196 268 257 194 300 7 38 36 36 30 27
177 173 176 175 177 177 171 173 170 173 175 175 171 168 162 164 166 171 172 179 208 224 220 218 220 219 212 201 180 185 186 203 205 161 253 194 240 202 40 26 26 26 32
184 184 184 183 185 178 175 178 180 176 177 177 173 170 171 171 173 174 165 163 169 194 253 248 240 231 214 197 185 191 198 221 209 94 267 208 188 197 93 33 20 22 34
196 193 191 189 187 182 182 182 179 178 175 176 181 183 182 180 184 182 179 178 180 175 189 233 248 240 210 167 181 196 183 176 152 149 267 248 191 203 162 137 35 24 33
205 203 196 193 192 188 187 185 179 174 177 180 185 192 193 191 185 185 184 183 186 173 139 117 89 110 119 139 163 164 173 195 202 169 185 257 214 237 225 192 93 32 24
209 203 202 200 198 194 190 190 185 182 183 183 186 193 201 199 188 189 193 193 196 186 170 158 153 150 152 154 180 207 190 199 205 177 156 223 196 244 228 179 195 221 232